When you browse on this site, cookies collect data to enhance your experience and personalize the content and advertising you see.
Visit our Privacy Policy to learn more. By continuing to use the site, you agree to this use of cookies and data.
  • In Germany
  • List of Countries
  • For 7 days
  • Water Temperature
  • Satellite Maps
  • Weather Map
  • Weather Widgets
  • user-avatar
    Login

    Hourly Weather Omegna

    Today, 14 December, Friday

    Time Temperature Precipitation Wind Pressure Humidity
    00:00 0°C° 0 mm 1 mps 730 mmHg 74%
    01:00 0°C° 0 mm 1 mps 730 mmHg 71%
    02:00 0°C° 0 mm 1 mps 730 mmHg 70%
    03:00 0°C° 0 mm 1 mps 730 mmHg 69%
    04:00 0°C° 0 mm 1 mps 730 mmHg 68%
    05:00 0°C° 0 mm 1 mps 730 mmHg 67%
    06:00 0°C° 0 mm 1 mps 730 mmHg 66%
    07:00 0°C° 0 mm 1 mps 730 mmHg 65%
    08:00 +1°C° 0 mm 1 mps 730 mmHg 62%
    09:00 +1°C° 0 mm 0 mps 730 mmHg 60%
    10:00 +2°C° 0 mm 0 mps 730 mmHg 57%
    11:00 +3°C° 0 mm 0 mps 730 mmHg 55%
    12:00 +3°C° 0 mm 0 mps 730 mmHg 54%
    13:00 +5°C° 0 mm 1 mps 730 mmHg 52%
    14:00 +5°C° 0 mm 1 mps 730 mmHg 56%
    15:00 +4°C° 0 mm 1 mps 730 mmHg 60%
    16:00 +3°C° 0 mm 1 mps 730 mmHg 64%
    17:00 +2°C° 0 mm 1 mps 731 mmHg 65%
    18:00 +2°C° 0 mm 1 mps 732 mmHg 66%
    19:00 +1°C° 0 mm 1 mps 732 mmHg 67%
    20:00 +1°C° 0 mm 1 mps 732 mmHg 66%
    21:00 0°C° 0 mm 1 mps 733 mmHg 64%
    22:00 0°C° 0 mm 1 mps 733 mmHg 63%
    23:00 0°C° 0 mm 1 mps 733 mmHg 60%

    Tomorrow, 15 December, Saturday

    Time Temperature Precipitation Wind Pressure Humidity
    00:00 0°C° 0 mm 1 mps 733 mmHg 57%
    01:00 0°C° 0 mm 1 mps 733 mmHg 54%
    02:00 0°C° 0 mm 1 mps 734 mmHg 53%
    03:00 0°C° 0 mm 1 mps 734 mmHg 51%
    04:00 -2°C° 0 mm 2 mps 734 mmHg 50%
    05:00 -3°C° 0 mm 2 mps 734 mmHg 49%
    06:00 -3°C° 0 mm 2 mps 734 mmHg 47%
    07:00 -3°C° 0 mm 2 mps 734 mmHg 46%
    08:00 0°C° 0 mm 1 mps 734 mmHg 44%
    09:00 +1°C° 0 mm 1 mps 734 mmHg 42%
    10:00 +2°C° 0 mm 1 mps 734 mmHg 40%
    11:00 +4°C° 0 mm 1 mps 734 mmHg 40%
    12:00 +5°C° 0 mm 1 mps 733 mmHg 41%
    13:00 +6°C° 0 mm 1 mps 733 mmHg 41%
    14:00 +5°C° 0 mm 1 mps 733 mmHg 44%
    15:00 +4°C° 0 mm 1 mps 733 mmHg 47%
    16:00 +3°C° 0 mm 1 mps 732 mmHg 50%
    17:00 +3°C° 0 mm 1 mps 733 mmHg 49%
    18:00 +2°C° 0 mm 1 mps 733 mmHg 47%
    19:00 +2°C° 0 mm 1 mps 733 mmHg 46%
    20:00 +2°C° 0 mm 1 mps 733 mmHg 46%
    21:00 +2°C° 0 mm 1 mps 733 mmHg 47%
    22:00 +3°C° 0 mm 1 mps 733 mmHg 47%
    23:00 +3°C° 0.2 mm 1 mps 733 mmHg 50%

    Day after tomorrow, 16 December, Sunday

    Time Temperature Precipitation Wind Pressure Humidity
    00:00 +3°C° 0.2 mm 1 mps 732 mmHg 53%
    01:00 +3°C° 0.2 mm 1 mps 732 mmHg 55%
    02:00 +3°C° 0.6 mm 1 mps 732 mmHg 56%
    03:00 +4°C° 0.6 mm 1 mps 731 mmHg 57%
    04:00 +4°C° 0.6 mm 1 mps 731 mmHg 58%
    05:00 +4°C° 0.7 mm 1 mps 731 mmHg 58%
    06:00 +4°C° 0.7 mm 1 mps 731 mmHg 58%
    07:00 +4°C° 0.7 mm 1 mps 731 mmHg 58%
    08:00 +4°C° 0.6 mm 1 mps 731 mmHg 57%
    09:00 +5°C° 0.6 mm 1 mps 731 mmHg 56%
    10:00 +6°C° 0.6 mm 1 mps 732 mmHg 55%
    11:00 +6°C° 0.4 mm 1 mps 731 mmHg 55%
    12:00 +6°C° 0.4 mm 1 mps 731 mmHg 55%
    13:00 +7°C° 0.4 mm 1 mps 731 mmHg 56%
    14:00 +6°C° 0.3 mm 1 mps 731 mmHg 59%
    15:00 +6°C° 0.3 mm 1 mps 731 mmHg 62%
    16:00 +4°C° 0.3 mm 0 mps 731 mmHg 65%
    17:00 +4°C° 0.4 mm 0 mps 731 mmHg 67%
    18:00 +5°C° 0.4 mm 1 mps 731 mmHg 70%
    19:00 +5°C° 0.4 mm 1 mps 731 mmHg 72%
    20:00 +5°C° 0.6 mm 1 mps 731 mmHg 76%
    21:00 +5°C° 0.6 mm 1 mps 731 mmHg 79%
    22:00 +5°C° 0.6 mm 1 mps 731 mmHg 82%
    23:00 +5°C° 1.2 mm 1 mps 731 mmHg 86%

    17 December, Monday

    Time Temperature Precipitation Wind Pressure Humidity
    00:00 +5°C° 1.2 mm 1 mps 731 mmHg 89%
    01:00 +5°C° 1.2 mm 1 mps 731 mmHg 93%
    02:00 +5°C° 1 mm 1 mps 731 mmHg 94%
    03:00 +4°C° 1 mm 1 mps 731 mmHg 96%
    04:00 +4°C° 1 mm 1 mps 731 mmHg 97%
    05:00 +4°C° 0.6 mm 1 mps 731 mmHg 97%
    06:00 +4°C° 0.6 mm 1 mps 731 mmHg 97%
    07:00 +4°C° 0.6 mm 1 mps 732 mmHg 97%
    08:00 +4°C° 0.2 mm 1 mps 732 mmHg 95%
    09:00 +5°C° 0.2 mm 1 mps 733 mmHg 93%
    10:00 +5°C° 0.2 mm 1 mps 733 mmHg 92%
    11:00 +6°C° 0.1 mm 1 mps 733 mmHg 90%
    12:00 +5°C° 0.1 mm 2 mps 733 mmHg 88%
    13:00 +6°C° 0.1 mm 2 mps 733 mmHg 87%
    14:00 +5°C° 0.1 mm 2 mps 734 mmHg 88%
    15:00 +5°C° 0.1 mm 2 mps 734 mmHg 89%
    16:00 +4°C° 0.1 mm 2 mps 734 mmHg 90%
    17:00 +4°C° 0.1 mm 2 mps 735 mmHg 89%
    18:00 +3°C° 0.1 mm 2 mps 735 mmHg 88%
    19:00 +3°C° 0.1 mm 2 mps 736 mmHg 86%
    20:00 +3°C° 0 mm 2 mps 737 mmHg 85%
    21:00 +2°C° 0 mm 2 mps 737 mmHg 84%
    22:00 +2°C° 0 mm 2 mps 738 mmHg 83%
    23:00 +2°C° 0 mm 2 mps 738 mmHg 81%

    18 December, Tuesday

    Time Temperature Precipitation Wind Pressure Humidity
    00:00 +1°C° 0 mm 2 mps 738 mmHg 79%
    01:00 +1°C° 0 mm 2 mps 738 mmHg 77%
    02:00 +1°C° 0 mm 2 mps 738 mmHg 75%
    03:00 +1°C° 0 mm 2 mps 738 mmHg 73%
    04:00 +1°C° 0 mm 2 mps 738 mmHg 70%
    05:00 +1°C° 0 mm 2 mps 738 mmHg 67%
    06:00 +1°C° 0 mm 2 mps 738 mmHg 64%
    07:00 +1°C° 0 mm 2 mps 738 mmHg 62%
    08:00 +3°C° 0 mm 1 mps 738 mmHg 61%
    09:00 +4°C° 0 mm 1 mps 738 mmHg 60%
    10:00 +5°C° 0 mm 1 mps 738 mmHg 60%
    11:00 +6°C° 0 mm 1 mps 738 mmHg 61%
    12:00 +7°C° 0 mm 1 mps 737 mmHg 62%
    13:00 +8°C° 0 mm 1 mps 737 mmHg 63%
    14:00 +7°C° 0 mm 1 mps 737 mmHg 65%
    15:00 +6°C° 0 mm 1 mps 737 mmHg 68%
    16:00 +5°C° 0 mm 1 mps 737 mmHg 71%
    17:00 +4°C° 0 mm 1 mps 737 mmHg 69%
    18:00 +4°C° 0 mm 1 mps 737 mmHg 67%
    19:00 +2°C° 0 mm 2 mps 737 mmHg 66%
    20:00 +2°C° 0 mm 2 mps 737 mmHg 65%
    21:00 +2°C° 0 mm 2 mps 737 mmHg 64%
    22:00 +2°C° 0 mm 2 mps 737 mmHg 63%
    23:00 +2°C° 0 mm 2 mps 737 mmHg 62%

    19 December, Wednesday

    Time Temperature Precipitation Wind Pressure Humidity
    00:00 +2°C° 0 mm 2 mps 737 mmHg 61%
    01:00 +3°C° 0 mm 1 mps 737 mmHg 61%
    02:00 +3°C° 0 mm 1 mps 737 mmHg 61%
    03:00 +4°C° 0 mm 1 mps 736 mmHg 62%
    04:00 +4°C° 0 mm 1 mps 736 mmHg 63%
    05:00 +4°C° 0 mm 1 mps 736 mmHg 64%
    06:00 +4°C° 0 mm 1 mps 736 mmHg 66%
    07:00 +4°C° 0 mm 1 mps 735 mmHg 68%
    08:00 +5°C° 0.2 mm 1 mps 735 mmHg 70%
    09:00 +5°C° 0.2 mm 1 mps 735 mmHg 71%
    10:00 +6°C° 0.2 mm 1 mps 735 mmHg 73%
    11:00 +6°C° 0.3 mm 1 mps 735 mmHg 75%
    12:00 +6°C° 0.3 mm 1 mps 734 mmHg 77%
    13:00 +7°C° 0.3 mm 1 mps 734 mmHg 80%
    14:00 +6°C° 0.4 mm 1 mps 734 mmHg 82%
    15:00 +6°C° 0.4 mm 1 mps 733 mmHg 85%
    16:00 +6°C° 0.4 mm 1 mps 733 mmHg 88%
    17:00 +6°C° 1 mm 1 mps 733 mmHg 89%
    18:00 +6°C° 1 mm 1 mps 733 mmHg 91%
    19:00 +5°C° 1 mm 1 mps 733 mmHg 92%
    20:00 +5°C° 1 mm 1 mps 733 mmHg 93%
    21:00 +5°C° 1 mm 1 mps 733 mmHg 94%
    22:00 +5°C° 1 mm 1 mps 733 mmHg 95%
    23:00 +5°C° 1.4 mm 1 mps 733 mmHg 95%
    Show more